Lid_Strength_Index
-0 -0 -0 -0 -0 -0 -0 -0 -0 -0 -1 -1 -1 -1 -1 -1 -0 3 7 4 3 -1 0 7 7 8 7 8 8 10 13 14 13 13 11 10 10 10 9 9 9 8 8 7 4
0 0 0 0 0 -0 -0 -0 -0 -0 -1 -1 -1 -1 -1 -1 4 6 1 -2 -2 -1 7 8 9 8 9 9 9 12 14 13 12 12 11 10 10 10 10 10 10 9 8 7 3
0 0 0 0 0 -0 -0 -0 -0 -0 -0 -0 -1 -1 -1 1 8 8 -1 -1 -0 2 6 7 8 8 10 10 10 12 13 12 12 11 10 10 11 10 10 11 10 9 9 8 4
-0 0 0 0 0 0 -0 -0 -0 -0 -0 -0 -1 -1 -0 5 14 7 -1 -1 -1 5 7 8 8 9 11 11 10 12 11 12 10 10 10 11 10 11 11 9 9 9 8 8 5
-0 -0 0 0 0 0 -0 -0 -0 -0 -0 -0 -1 -1 5 10 9 5 -0 1 5 7 8 9 9 9 11 11 11 11 12 11 10 11 11 11 11 10 11 10 10 10 10 9 6
-0 -0 -0 0 0 0 0 -0 -0 -0 -0 -0 -1 0 7 13 5 5 5 6 7 8 9 8 9 9 10 11 12 11 11 11 10 10 10 11 12 11 10 10 10 10 10 10 8
0 0 1 -0 -0 0 0 -0 -0 -0 -0 -0 -1 3 9 10 5 5 6 7 7 7 8 8 8 9 10 11 10 11 12 11 11 11 11 11 12 11 10 11 10 10 10 11 10
0 0 1 0 -0 -0 0 0 -0 -0 -0 -0 -1 6 11 6 5 6 6 7 7 7 7 8 8 9 10 10 11 13 13 14 12 12 11 11 13 11 11 11 10 11 11 11 11
0 0 0 -0 -0 -0 -0 -0 -0 -0 -1 -1 5 8 12 4 6 5 7 7 8 8 7 7 8 11 10 13 14 14 16 15 14 11 12 12 13 11 11 12 11 11 11 11 11
1 1 0 -0 -0 -0 -0 -1 -0 1 1 2 3 12 10 10 6 6 7 7 8 9 9 9 11 13 14 14 17 16 16 16 15 13 13 13 13 11 11 12 11 11 11 12 11
1 1 0 -0 -0 -0 1 4 6 8 6 10 11 12 9 7 6 7 7 8 9 10 12 12 13 15 12 13 15 15 16 16 15 13 13 13 14 11 11 12 12 11 12 11 11
2 1 0 0 -0 -1 2 6 6 7 8 5 6 7 6 6 9 7 7 9 11 13 12 14 15 12 12 13 13 14 16 16 14 13 13 14 14 12 11 11 10 10 10 10 10
2 2 2 1 0 0 4 4 3 4 9 7 6 6 7 7 9 8 8 10 12 13 13 14 13 12 12 14 14 15 15 16 14 14 14 15 16 15 13 12 11 11 10 10 10
3 3 2 1 3 2 3 2 2 4 12 11 8 6 7 7 10 7 7 9 12 12 13 13 12 12 13 14 13 16 13 14 15 15 17 15 18 15 13 12 12 11 11 11 11
3 3 3 2 3 4 2 2 3 4 20 9 8 5 8 9 10 9 8 9 12 12 12 14 13 13 13 13 12 14 13 14 15 16 17 17 18 17 15 14 12 10 11 12 12
4 4 3 3 2 2 2 2 3 13 19 13 9 10 10 10 11 10 9 9 10 12 12 13 12 12 12 12 12 12 14 14 16 17 19 17 17 18 16 14 12 11 12 12 12
4 3 4 4 4 3 1 4 14 18 10 13 13 12 11 12 12 11 12 12 13 15 15 14 13 12 12 13 13 13 14 18 20 20 19 18 18 15 13 13 12 11 12 12 13
3 3 5 4 3 4 5 9 17 13 13 11 12 13 13 13 13 13 13 14 12 14 16 15 17 13 12 12 13 14 14 18 22 21 19 18 19 15 13 12 13 13 13 13 12
2 5 5 5 4 5 8 14 15 13 11 11 11 13 14 13 14 15 15 15 13 13 14 16 16 14 13 13 11 15 16 14 17 25 21 18 17 14 13 13 13 13 14 12 12
6 7 6 2 3 5 11 13 12 9 9 10 14 12 15 14 14 16 16 14 13 13 13 14 17 15 14 13 13 14 13 17 18 22 24 19 18 17 14 14 13 13 13 12 13
7 11 7 2 3 8 15 14 11 9 8 11 12 13 12 13 13 15 15 13 13 13 11 13 15 17 15 16 16 16 16 16 16 18 21 23 17 15 14 13 13 13 12 12 13
7 13 6 1 9 11 14 11 9 9 8 9 9 11 12 11 13 13 13 12 11 12 14 12 13 15 17 15 15 16 16 16 18 20 19 19 16 14 14 14 13 13 12 12 13
10 10 6 2 13 13 10 10 8 9 9 10 10 9 9 11 14 12 12 10 10 11 12 11 14 18 16 15 15 15 15 13 15 16 19 19 16 15 15 14 13 13 13 13 14
8 13 10 7 7 10 12 11 11 8 9 8 10 9 10 12 10 13 12 9 10 10 9 9 13 15 17 16 15 17 16 14 13 16 17 16 14 14 14 13 13 13 13 13 14
7 12 11 13 13 11 9 9 11 11 8 8 10 10 11 13 12 12 11 10 9 9 9 10 15 14 13 15 15 15 15 14 15 14 16 14 14 12 11 12 12 12 13 13 13
9 10 9 12 10 12 11 12 12 10 9 11 11 10 10 12 11 14 11 11 11 10 10 10 15 14 15 13 14 15 14 15 14 13 13 13 13 10 11 11 12 11 11 12 12
6 6 8 11 12 12 13 12 12 11 10 8 9 10 11 10 8 8 8 9 10 11 11 12 14 15 17 14 14 17 14 13 14 13 13 15 12 9 12 12 11 11 11 11 11